This demonstration page uses our WeatherBlox Daily Observations layout. Learn more.

Hourly Observations for March 21, 2018

Temp ( °F °C ) Dew Point ( °F °C ) Humidity (%) Winds ( mph kmh ) Pressure ( in mb ) Visibility ( mi km ) Precip ( " mm )
12:15 am 00:15 Clear 31 -0.4 30 -1 96 96 W 3 6 30.18 1022 10 16.0934 0 0
12:35 am 00:35 Clear 32 0 32 -0.2 99 99 W 5 7 30.18 1022 10 16.0934 0 0
12:55 am 00:55 Clear 32 0 31 -0.5 96 96 W 6 9 30.18 1022 10 16.0934 0 0
1:15 am 01:15 Clear 32 0 31 -0.3 98 98 W 6 9 30.18 1022 10 16.0934 0 0
1:35 am 01:35 Clear 31 -0.5 30 -1 96 96 W 7 11 30.18 1022 10 16.0934 0 0
1:55 am 01:55 Clear 30 -1 29 -1.4 97 97 W 7 11 30.18 1022 10 16.0934 0 0
2:15 am 02:15 Clear 31 -0.5 30 -1 96 96 W 7 11 30.18 1022 10 16.0934 0 0
2:35 am 02:35 Clear 32 -0.1 31 -0.5 97 97 W 8 13 30.18 1022 10 16.0934 0 0
2:55 am 02:55 Clear 32 0.1 32 0 99 99 W 7 11 30.18 1022 10 16.0934 0 0
3:15 am 03:15 Clear 32 0 31 -0.3 98 98 W 7 11 30.18 1022 10 16.0934 0 0
3:35 am 03:35 Clear 31 -0.6 30 -1.1 96 96 W 7 11 30.18 1022 10 16.0934 0 0
3:55 am 03:55 Clear 30 -0.9 29 -1.4 96 96 W 9 15 30.18 1022 10 16.0934 0 0
4:15 am 04:15 Clear 32 -0.1 31 -0.7 96 96 W 8 13 30.18 1022 10 16.0934 0 0
4:35 am 04:35 Clear 32 0 31 -0.5 96 96 W 10 17 30.18 1022 10 16.0934 0 0
4:55 am 04:55 Clear 32 0.1 31 -0.4 96 96 W 8 13 30.18 1022 10 16.0934 0 0
5:15 am 05:15 Clear 31 -0.5 30 -1 96 96 W 6 9 30.18 1022 10 16.0934 0 0
5:35 am 05:35 Clear 30 -0.9 30 -1.1 99 99 Calm 30.18 1022 10 16.0934 0 0
5:55 am 05:55 Clear 30 -1 30 -1.3 98 98 W 3 6 30.18 1022 10 16.0934 0 0
6:15 am 06:15 Clear 29 -1.9 28 -2.1 99 99 W 5 7 30.21 1023 10 16.0934 0 0
6:35 am 06:35 Clear 29 -1.7 28 -2 98 98 W 6 9 30.21 1023 10 16.0934 0 0
6:55 am 06:55 Clear 29 -1.5 29 -1.7 99 99 W 5 7 30.21 1023 10 16.0934 0 0
7:15 am 07:15 Clear 29 -1.8 28 -2.1 98 98 Calm 30.21 1023 10 16.0934 0 0
7:35 am 07:35 Clear 27 -3 26 -3.3 98 98 Calm 30.27 1025 10 16.0934 0 0
7:55 am 07:55 Sunny 27 -2.6 27 -2.7 99 99 Calm 30.27 1025 10 16.0934 0 0
8:15 am 08:15 Sunny 28 -2 28 -2.2 99 99 Calm 30.24 1024 10 16.0934 0 0
8:35 am 08:35 Sunny 29 -1.7 28 -2 98 98 Calm 30.24 1024 10 16.0934 0 0
8:55 am 08:55 Sunny 31 -0.7 30 -1 98 98 W 3 6 30.24 1024 10 16.0934 0 0
9:15 am 09:15 Sunny 33 0.7 32 -0.1 94 94 Calm 30.24 1024 10 16.0934 0 0
9:35 am 09:35 Sunny 35 1.9 32 0.2 89 89 W 3 6 30.21 1023 10 16.0934 0 0
9:55 am 09:55 Sunny 38 3.2 33 0.8 84 84 W 6 9 30.21 1023 10 16.0934 0 0
10:15 am 10:15 Sunny 41 4.9 35 1.5 79 79 WSW 7 11 30.18 1022 10 16.0934 0 0
10:35 am 10:35 Sunny 42 5.6 35 1.8 77 77 SW 6 9 30.18 1022 10 16.0934 0 0
10:55 am 10:55 Sunny 44 6.4 37 2.5 76 76 SW 8 13 30.18 1022 10 16.0934 0 0
11:15 am 11:15 Sunny 45 7.3 37 2.9 74 74 SW 7 11 30.15 1021 10 16.0934 0 0
11:35 am 11:35 Sunny 48 8.7 38 3.4 70 70 SW 7 11 30.15 1021 10 16.0934 0 0
11:55 am 11:55 Sunny 49 9.7 37 2.6 62 62 SW 10 17 30.15 1021 10 16.0934 0 0
12:15 pm 12:15 Sunny 50 10.2 34 1.1 54 54 SSW 14 22 30.15 1021 10 16.0934 0 0
12:35 pm 12:35 Sunny 51 10.6 36 2 56 56 SSW 13 20 30.12 1020 10 16.0934 0 0
12:55 pm 12:55 Sunny 52 11 36 2.4 56 56 S 14 22 30.09 1019 10 16.0934 0 0
1:15 pm 13:15 Mostly Cloudy 53 11.9 36 2.1 51 51 SSW 12 19 30.09 1019 10 16.0934 0 0
1:35 pm 13:35 Cloudy 55 12.5 37 2.9 52 52 S 14 22 30.09 1019 10 16.0934 0 0
1:55 pm 13:55 Cloudy 57 14 35 1.4 43 43 SSW 13 20 30.06 1018 10 16.0934 0 0
2:15 pm 14:15 Partly Cloudy 58 14.5 35 1.6 42 42 SSW 17 28 30.03 1017 10 16.0934 0 0
2:35 pm 14:35 Partly Cloudy 57 13.8 35 1.6 44 44 S 15 24 30.03 1017 10 16.0934 0 0
2:55 pm 14:55 Mostly Cloudy 57 14 35 1.8 44 44 SSW 16 26 30.03 1017 10 16.0934 0 0
3:15 pm 15:15 Partly Cloudy 58 14.6 36 2 43 43 S 15 24 30.03 1017 10 16.0934 0 0
3:35 pm 15:35 Cloudy 59 15.1 35 1.4 40 40 SSW 12 19 30.03 1017 10 16.0934 0 0
3:55 pm 15:55 Cloudy 59 15.1 34 0.9 38 38 S 17 28 30 1016 10 16.0934 0 0
4:15 pm 16:15 Mostly Cloudy 59 15.1 34 1 39 39 SSW 14 22 30 1016 10 16.0934 0 0
4:35 pm 16:35 Cloudy 59 14.9 34 1.3 40 40 SSW 14 22 30 1016 10 16.0934 0 0
4:55 pm 16:55 Cloudy 60 15.3 33 0.7 37 37 SSW 13 20 30 1016 10 16.0934 0 0
5:15 pm 17:15 Cloudy 60 15.5 33 0.8 37 37 SSW 12 19 30 1016 10 16.0934 0 0
5:35 pm 17:35 Cloudy 61 16 34 1.3 37 37 SSW 14 22 30 1016 10 16.0934 0 0
5:55 pm 17:55 Cloudy 61 16.1 33 0.7 35 35 SW 13 20 30 1016 10 16.0934 0 0
6:15 pm 18:15 Cloudy 60 15.8 34 0.9 37 37 SSW 10 17 30 1016 10 16.0934 0 0
6:35 pm 18:35 Partly Cloudy 60 15.6 33 0.8 37 37 SSW 13 20 30 1016 10 16.0934 0 0
6:55 pm 18:55 Sunny 59 15.1 33 0.7 38 38 S 8 13 30 1016 10 16.0934 0 0
7:15 pm 19:15 Partly Cloudy 58 14.7 33 0.7 39 39 S 8 13 30 1016 10 16.0934 0 0
7:35 pm 19:35 Partly Cloudy 55 12.5 36 2 49 49 S 8 13 30.03 1017 10 16.0934 0 0
7:55 pm 19:55 Clear 51 10.4 36 2 56 56 SSE 8 13 30.03 1017 10 16.0934 0 0
8:15 pm 20:15 Clear 48 8.7 35 1.4 60 60 SSE 9 15 30.06 1018 10 16.0934 0 0
8:35 pm 20:35 Clear 46 8 35 1.4 63 63 SSE 8 13 30.06 1018 10 16.0934 0 0
8:55 pm 20:55 Clear 46 8 34 1.3 63 63 SSE 9 15 30.06 1018 10 16.0934 0 0
9:15 pm 21:15 Clear 45 7.3 34 1.2 66 66 SSE 10 17 30.06 1018 10 16.0934 0 0
9:35 pm 21:35 Partly Cloudy 44 6.4 34 1 69 69 SSE 9 15 30.12 1020 10 16.0934 0 0
9:55 pm 21:55 Clear 44 6.5 34 1.1 69 69 SSE 10 17 30.09 1019 10 16.0934 0 0
10:15 pm 22:15 Clear 44 6.5 34 1.2 69 69 SSE 10 17 30.09 1019 10 16.0934 0 0
10:35 pm 22:35 Clear 44 6.7 35 1.4 69 69 SSE 9 15 30.09 1019 10 16.0934 0 0
10:55 pm 22:55 Clear 44 6.7 35 1.5 70 70 S 12 19 30.09 1019 10 16.0934 0 0
11:15 pm 23:15 Clear 42 5.6 35 1.4 75 75 S 9 15 30.12 1020 10 16.0934 0 0
11:35 pm 23:35 Clear 43 6 35 1.5 73 73 S 10 17 30.12 1020 10 16.0934 0 0
11:55 pm 23:55 Clear 42 5.8 35 1.5 74 74 S 9 15 30.12 1020 10 16.0934 0 0

Powered by AerisWeather